Location: Vihti�l�
(61.3833°N, 23.0667°E)
Time: 05:34:38
(UTC+00:00)

Cosmos 1500 Rocket - Pass Details

Date: 29 November 2020
Orbit: 603 x 631 km, 82.5° (Epoch: 22 January)

Event Time Altitude Azimuth Distance (km) Brightness Sun altitude
Rises 04:34:08 0° 196° (SSW) 2,854 7.0 -16.7°
Reaches altitude 10° 04:36:20 10° 198° (SSW) 1,956 6.1 -16.4°
Maximum altitude 04:40:40 80° 284° (WNW) 627 3.4 -16.0°
Drops below altitude 10° 04:45:04 10° 13° (NNE) 1,982 6.1 -15.4°
Sets 04:47:18 0° 15° (NNE) 2,896 7.0 -15.2°
